![]() |
EMODnet Physics ERDDAP
Easier access to scientific data |
log in|
Brought to you by EMODnet Physics |
| Dataset Title: | NDBC - Collection of dew point temperature (DEWT) TimeSeries - IN SITU MultiPointTimeSeriesObservation
|
| Institution: | NDBC (Dataset ID: TS_DEWT_NDBC) |
| Information: | Summary
| License
| FGDC
| ISO 19115
| Metadata
| Background
| Subset
| Data Access Form
| Make a graph
|
| Name | Last modified | Size | Description | |
|---|---|---|---|---|
| Parent Directory | - | - | ||
| 44005_TS_DEWT_012004.nc | 18-Jan-2026 17:42 | 429696 | ||
| 44005_TS_DEWT_012005.nc | 18-Jan-2026 17:45 | 429685 | ||
| 44005_TS_DEWT_012006.nc | 18-Jan-2026 17:48 | 429669 | ||
| 44005_TS_DEWT_012007.nc | 18-Jan-2026 17:52 | 429681 | ||
| 44005_TS_DEWT_012008.nc | 18-Jan-2026 17:54 | 427440 | ||
| 44005_TS_DEWT_012012.nc | 18-Jan-2026 18:07 | 429690 | ||
| 44005_TS_DEWT_012016.nc | 18-Jan-2026 18:16 | 429691 | ||
| 44005_TS_DEWT_012017.nc | 18-Jan-2026 18:21 | 429698 | ||
| 44005_TS_DEWT_012021.nc | 18-Jan-2026 18:29 | 450164 | ||
| 44005_TS_DEWT_012022.nc | 18-Jan-2026 18:32 | 450104 | ||
| 44005_TS_DEWT_012023.nc | 18-Jan-2026 18:35 | 450278 | ||
| 44005_TS_DEWT_012024.nc | 18-Jan-2026 18:40 | 451706 | ||
| 44005_TS_DEWT_022003.nc | 18-Jan-2026 17:38 | 448435 | ||
| 44005_TS_DEWT_022004.nc | 18-Jan-2026 17:42 | 449497 | ||
| 44005_TS_DEWT_022005.nc | 18-Jan-2026 17:46 | 449901 | ||
| 44005_TS_DEWT_022006.nc | 18-Jan-2026 17:49 | 449634 | ||
| 44005_TS_DEWT_022007.nc | 18-Jan-2026 17:52 | 450202 | ||
| 44005_TS_DEWT_022012.nc | 18-Jan-2026 18:07 | 450999 | ||
| 44005_TS_DEWT_022016.nc | 18-Jan-2026 18:17 | 450189 | ||
| 44005_TS_DEWT_022017.nc | 18-Jan-2026 18:22 | 450681 | ||
| 44005_TS_DEWT_022021.nc | 18-Jan-2026 18:30 | 450442 | ||
| 44005_TS_DEWT_022022.nc | 18-Jan-2026 18:33 | 450850 | ||
| 44005_TS_DEWT_022023.nc | 18-Jan-2026 18:35 | 450184 | ||
| 44005_TS_DEWT_022024.nc | 18-Jan-2026 18:41 | 449337 | ||
| 44005_TS_DEWT_032004.nc | 18-Jan-2026 17:42 | 429910 | ||
| 44005_TS_DEWT_032005.nc | 18-Jan-2026 17:46 | 438219 | ||
| 44005_TS_DEWT_032006.nc | 18-Jan-2026 17:49 | 449471 | ||
| 44005_TS_DEWT_032007.nc | 18-Jan-2026 17:52 | 448595 | ||
| 44005_TS_DEWT_032008.nc | 18-Jan-2026 17:55 | 450021 | ||
| 44005_TS_DEWT_032012.nc | 18-Jan-2026 18:08 | 418871 | ||
| 44005_TS_DEWT_032016.nc | 18-Jan-2026 18:17 | 449663 | ||
| 44005_TS_DEWT_032021.nc | 18-Jan-2026 18:30 | 450399 | ||
| 44005_TS_DEWT_032022.nc | 18-Jan-2026 18:33 | 449226 | ||
| 44005_TS_DEWT_032023.nc | 18-Jan-2026 18:36 | 450674 | ||
| 44005_TS_DEWT_042004.nc | 18-Jan-2026 17:43 | 450584 | ||
| 44005_TS_DEWT_042005.nc | 18-Jan-2026 17:46 | 4655073 | ||
| 44005_TS_DEWT_042007.nc | 18-Jan-2026 17:53 | 429351 | ||
| 44005_TS_DEWT_042008.nc | 18-Jan-2026 17:55 | 429355 | ||
| 44005_TS_DEWT_042012.nc | 18-Jan-2026 18:08 | 429345 | ||
| 44005_TS_DEWT_042014.nc | 18-Jan-2026 18:10 | 428865 | ||
| 44005_TS_DEWT_042016.nc | 18-Jan-2026 18:17 | 429360 | ||
| 44005_TS_DEWT_042021.nc | 18-Jan-2026 18:30 | 429362 | ||
| 44005_TS_DEWT_042022.nc | 18-Jan-2026 18:33 | 429284 | ||
| 44005_TS_DEWT_042023.nc | 18-Jan-2026 18:36 | 422584 | ||
| 44005_TS_DEWT_052003.nc | 18-Jan-2026 17:39 | 429344 | ||
| 44005_TS_DEWT_052004.nc | 18-Jan-2026 17:43 | 425718 | ||
| 44005_TS_DEWT_052005.nc | 18-Jan-2026 17:47 | 429324 | ||
| 44005_TS_DEWT_052007.nc | 18-Jan-2026 17:53 | 429355 | ||
| 44005_TS_DEWT_052012.nc | 18-Jan-2026 18:08 | 429367 | ||
| 44005_TS_DEWT_052014.nc | 18-Jan-2026 18:11 | 450128 | ||
| 44005_TS_DEWT_052016.nc | 18-Jan-2026 18:18 | 449672 | ||
| 44005_TS_DEWT_052021.nc | 18-Jan-2026 18:30 | 448778 | ||
| 44005_TS_DEWT_052022.nc | 18-Jan-2026 18:33 | 447914 | ||
| 44005_TS_DEWT_052023.nc | 18-Jan-2026 18:36 | 449299 | ||
| 44005_TS_DEWT_062003.nc | 18-Jan-2026 17:40 | 448657 | ||
| 44005_TS_DEWT_062004.nc | 18-Jan-2026 17:43 | 449971 | ||
| 44005_TS_DEWT_062005.nc | 18-Jan-2026 17:47 | 449382 | ||
| 44005_TS_DEWT_062007.nc | 18-Jan-2026 17:53 | 449377 | ||
| 44005_TS_DEWT_062012.nc | 18-Jan-2026 18:08 | 449602 | ||
| 44005_TS_DEWT_062014.nc | 18-Jan-2026 18:11 | 450098 | ||
| 44005_TS_DEWT_062016.nc | 18-Jan-2026 18:18 | 449219 | ||
| 44005_TS_DEWT_062019.nc | 18-Jan-2026 18:27 | 449777 | ||
| 44005_TS_DEWT_062021.nc | 18-Jan-2026 18:31 | 448320 | ||
| 44005_TS_DEWT_062022.nc | 18-Jan-2026 18:34 | 448929 | ||
| 44005_TS_DEWT_062023.nc | 18-Jan-2026 18:37 | 448986 | ||
| 44005_TS_DEWT_072003.nc | 18-Jan-2026 17:40 | 429574 | ||
| 44005_TS_DEWT_072004.nc | 18-Jan-2026 17:44 | 429571 | ||
| 44005_TS_DEWT_072007.nc | 18-Jan-2026 17:54 | 449278 | ||
| 44005_TS_DEWT_072008.nc | 18-Jan-2026 17:55 | 449171 | ||
| 44005_TS_DEWT_072012.nc | 18-Jan-2026 18:09 | 450363 | ||
| 44005_TS_DEWT_072014.nc | 18-Jan-2026 18:11 | 448485 | ||
| 44005_TS_DEWT_072016.nc | 18-Jan-2026 18:18 | 448542 | ||
| 44005_TS_DEWT_072019.nc | 18-Jan-2026 18:27 | 449634 | ||
| 44005_TS_DEWT_072021.nc | 18-Jan-2026 18:31 | 449796 | ||
| 44005_TS_DEWT_072022.nc | 18-Jan-2026 18:34 | 449589 | ||
| 44005_TS_DEWT_082003.nc | 18-Jan-2026 17:40 | 448651 | ||
| 44005_TS_DEWT_082004.nc | 18-Jan-2026 17:44 | 3999790 | ||
| 44005_TS_DEWT_082007.nc | 18-Jan-2026 17:54 | 429683 | ||
| 44005_TS_DEWT_082008.nc | 18-Jan-2026 17:56 | 429688 | ||
| 44005_TS_DEWT_082012.nc | 18-Jan-2026 18:09 | 429641 | ||
| 44005_TS_DEWT_082014.nc | 18-Jan-2026 18:12 | 429680 | ||
| 44005_TS_DEWT_082016.nc | 18-Jan-2026 18:19 | 429697 | ||
| 44005_TS_DEWT_082019.nc | 18-Jan-2026 18:27 | 429499 | ||
| 44005_TS_DEWT_082021.nc | 18-Jan-2026 18:31 | 429300 | ||
| 44005_TS_DEWT_082022.nc | 18-Jan-2026 18:34 | 429055 | ||
| 44005_TS_DEWT_092003.nc | 18-Jan-2026 17:40 | 429697 | ||
| 44005_TS_DEWT_092004.nc | 18-Jan-2026 17:44 | 429691 | ||
| 44005_TS_DEWT_092008.nc | 18-Jan-2026 17:56 | 429689 | ||
| 44005_TS_DEWT_092012.nc | 18-Jan-2026 18:09 | 429700 | ||
| 44005_TS_DEWT_092014.nc | 18-Jan-2026 18:12 | 429690 | ||
| 44005_TS_DEWT_092015.nc | 18-Jan-2026 18:15 | 450359 | ||
| 44005_TS_DEWT_092016.nc | 18-Jan-2026 18:19 | 449315 | ||
| 44005_TS_DEWT_092019.nc | 18-Jan-2026 18:27 | 450138 | ||
| 44005_TS_DEWT_092021.nc | 18-Jan-2026 18:31 | 450760 | ||
| 44005_TS_DEWT_092022.nc | 18-Jan-2026 18:34 | 449726 | ||
| 44005_TS_DEWT_102003.nc | 18-Jan-2026 17:41 | 450327 | ||
| 44005_TS_DEWT_102004.nc | 18-Jan-2026 17:44 | 450832 | ||
| 44005_TS_DEWT_102005.nc | 18-Jan-2026 17:47 | 450796 | ||
| 44005_TS_DEWT_102006.nc | 18-Jan-2026 17:51 | 450869 | ||
| 44005_TS_DEWT_102012.nc | 18-Jan-2026 18:09 | 450668 | ||
| 44005_TS_DEWT_102014.nc | 18-Jan-2026 18:12 | 451091 | ||
| 44005_TS_DEWT_102015.nc | 18-Jan-2026 18:16 | 449616 | ||
| 44005_TS_DEWT_102016.nc | 18-Jan-2026 18:19 | 450779 | ||
| 44005_TS_DEWT_102019.nc | 18-Jan-2026 18:28 | 449688 | ||
| 44005_TS_DEWT_102020.nc | 18-Jan-2026 18:29 | 448785 | ||
| 44005_TS_DEWT_102021.nc | 18-Jan-2026 18:32 | 451276 | ||
| 44005_TS_DEWT_102022.nc | 18-Jan-2026 18:35 | 429917 | ||
| 44005_TS_DEWT_112003.nc | 18-Jan-2026 17:41 | 429917 | ||
| 44005_TS_DEWT_112004.nc | 18-Jan-2026 17:45 | 449360 | ||
| 44005_TS_DEWT_112005.nc | 18-Jan-2026 17:48 | 449585 | ||
| 44005_TS_DEWT_112006.nc | 18-Jan-2026 17:51 | 449856 | ||
| 44005_TS_DEWT_112012.nc | 18-Jan-2026 18:10 | 450541 | ||
| 44005_TS_DEWT_112014.nc | 18-Jan-2026 18:13 | 450346 | ||
| 44005_TS_DEWT_112015.nc | 18-Jan-2026 18:16 | 450893 | ||
| 44005_TS_DEWT_112016.nc | 18-Jan-2026 18:20 | 450310 | ||
| 44005_TS_DEWT_112019.nc | 18-Jan-2026 18:28 | 451310 | ||
| 44005_TS_DEWT_112020.nc | 18-Jan-2026 18:29 | 449743 | ||
| 44005_TS_DEWT_112021.nc | 18-Jan-2026 18:32 | 492453 | ||
| 44005_TS_DEWT_112022.nc | 18-Jan-2026 18:35 | 4259695 | ||
| 44005_TS_DEWT_122003.nc | 18-Jan-2026 17:41 | 429334 | ||
| 44005_TS_DEWT_122004.nc | 18-Jan-2026 17:45 | 429330 | ||
| 44005_TS_DEWT_122005.nc | 18-Jan-2026 17:48 | 429042 | ||
| 44005_TS_DEWT_122007.nc | 18-Jan-2026 17:54 | 429372 | ||
| 44005_TS_DEWT_122011.nc | 18-Jan-2026 18:06 | 429366 | ||
| 44005_TS_DEWT_122012.nc | 18-Jan-2026 18:10 | 429327 | ||
| 44005_TS_DEWT_122014.nc | 18-Jan-2026 18:13 | 429373 | ||
| 44005_TS_DEWT_122015.nc | 18-Jan-2026 18:16 | 429351 | ||
| 44005_TS_DEWT_122016.nc | 18-Jan-2026 18:20 | 429368 | ||
| 44005_TS_DEWT_122019.nc | 18-Jan-2026 18:28 | 429356 | ||
| 44005_TS_DEWT_122020.nc | 18-Jan-2026 18:29 | 429368 | ||
| 44005_TS_DEWT_122021.nc | 18-Jan-2026 18:32 | 429343 | ||
| 44005_TS_DEWT_122022.nc | 18-Jan-2026 18:35 | 429374 | ||